Torna al catalogo

SL-19 R/B

AttivoPO
NORAD 37155·ROCKET BODY·🇷🇺 Russia

Lanciato Sep 8, 2010 da Plesetsk Cosmodrome

Loading…

Prossimi Passaggi (prossime 24 ore)

TLE

AggiornatoSource: Space-Track

Epoca: Sep 14, 2026, 20:53 UTC

1 37155U 10043D   26257.87019179  .00000016  00000-0  25880-4 0  9997
2 37155  82.4579 117.0998 0198249 320.8016  58.6280 12.78572030747615

Traccia SL-19 R/B in tempo reale con AllMySat

Download on the App Store